Location: London
(51.5074°N, 0.1278°W)
Time: 09:38:37
(UTC+01:00)

N. Korean satellite - Pass Details

Date: 30 September 2021
Orbit: 450 x 495 km, 97.3° (Epoch: 15 October)

Event Time Altitude Azimuth Distance (km) Brightness Sun altitude
Rises 05:17:15 0° 29° (NNE) 2,543 10.9 -16.6°
Reaches altitude 10° 05:20:03 10° 54° (NE) 1,668 10.4 -16.2°
Maximum altitude 05:22:11 15° 90° (E) 1,391 10.0 -15.8°
Drops below altitude 10° 05:24:18 10° 126° (SE) 1,674 9.8 -15.5°
Sets 05:27:06 0° 151° (SSE) 2,557 10.4 -15.1°
